JBU1314 MROC-KMCO

Flight info

Callsign JBU1314
Flight time 2h 48m
Altitude 34000
Route NANJO3L LIB G439 LINAS/N0401F170 G439 IMOLA/N0412F190 G439 MGA/N0470F340 UZ498 BTO UB881 ANIKO/N0466F350 UB881 CUN UM219 MYDIA M219 CIGAR PRICY5
Aircraft A320/M-VGDW/C

Departure

Time 2026-04-24 00:54
Airport Juan Santamaría International Airport (MROC)

Arrival

Time 2026-04-24 03:42
Airport Orlando International Airport (KMCO)
Time Latitude Longitude Altitude Speed Heading
2026-04-24 00:39 9.99693 -84.20497 3010 ft 0 kts 342°
2026-04-24 00:39 9.99692 -84.20497 3010 ft 0 kts 342°
2026-04-24 00:46 9.99677 -84.20491 3012 ft 3 kts 342°
2026-04-24 00:46 9.99664 -84.20488 3010 ft 2 kts 340°
2026-04-24 00:46 9.99652 -84.20477 3018 ft 2 kts 269°
2026-04-24 00:47 9.99651 -84.20472 3017 ft 0 kts 251°
2026-04-24 00:49 9.99645 -84.20483 3015 ft 6 kts 241°
2026-04-24 00:50 9.99618 -84.20538 3008 ft 11 kts 247°
2026-04-24 00:50 9.99587 -84.20621 3004 ft 15 kts 249°
2026-04-24 00:50 9.99545 -84.20732 2999 ft 19 kts 249°
2026-04-24 00:50 9.99495 -84.20868 2993 ft 23 kts 249°
2026-04-24 00:51 9.99434 -84.21030 2985 ft 27 kts 249°
2026-04-24 00:51 9.99364 -84.21218 2976 ft 30 kts 249°
2026-04-24 00:51 9.99292 -84.21409 2968 ft 29 kts 249°
2026-04-24 00:51 9.99220 -84.21601 2954 ft 30 kts 249°
2026-04-24 00:52 9.99143 -84.21806 2946 ft 32 kts 249°
2026-04-24 00:52 9.99073 -84.21991 2933 ft 28 kts 251°
2026-04-24 00:52 9.99036 -84.22119 2937 ft 10 kts 256°
2026-04-24 00:52 9.98989 -84.22164 2931 ft 12 kts 173°
2026-04-24 00:53 9.98930 -84.22122 2934 ft 11 kts 87°
2026-04-24 00:53 9.98979 -84.21980 2933 ft 49 kts 68°
2026-04-24 00:53 9.99184 -84.21432 2959 ft 117 kts 69°
2026-04-24 00:53 9.99539 -84.20488 3013 ft 167 kts 69°
2026-04-24 00:54 10.00014 -84.19357 3559 ft 176 kts 55°
2026-04-24 00:54 10.00983 -84.18630 4270 ft 182 kts 12°
2026-04-24 00:54 10.02262 -84.18828 4489 ft 200 kts 325°
2026-04-24 00:54 10.03418 -84.19714 4691 ft 216 kts 321°
2026-04-24 00:55 10.04619 -84.20701 4964 ft 230 kts 319°
2026-04-24 00:55 10.05672 -84.21980 5185 ft 246 kts 293°
2026-04-24 00:55 10.06290 -84.23675 5441 ft 266 kts 288°
2026-04-24 00:55 10.06912 -84.25460 5955 ft 275 kts 289°
2026-04-24 00:56 10.07571 -84.27297 6642 ft 279 kts 290°
2026-04-24 00:56 10.08252 -84.29151 7283 ft 282 kts 290°
2026-04-24 00:56 10.08949 -84.31028 7909 ft 286 kts 291°
2026-04-24 00:56 10.09658 -84.32926 8531 ft 289 kts 291°
2026-04-24 00:57 10.10372 -84.34843 9152 ft 292 kts 291°
2026-04-24 00:57 10.11110 -84.36772 9760 ft 295 kts 292°
2026-04-24 00:57 10.12728 -84.40691 10421 ft 317 kts 293°
2026-04-24 00:58 10.13605 -84.42778 10540 ft 335 kts 293°
2026-04-24 00:58 10.14537 -84.45007 10727 ft 349 kts 293°
2026-04-24 00:58 10.15488 -84.47302 11154 ft 355 kts 293°
2026-04-24 00:58 10.16635 -84.49525 11642 ft 358 kts 307°
2026-04-24 00:59 10.18415 -84.51285 12141 ft 360 kts 327°
2026-04-24 00:59 10.20698 -84.52326 12775 ft 364 kts 346°
2026-04-24 00:59 10.23220 -84.52623 13527 ft 367 kts 357°
2026-04-24 00:59 10.25782 -84.52755 14235 ft 371 kts 357°
2026-04-24 01:00 10.28343 -84.52877 14901 ft 375 kts 357°
2026-04-24 01:00 10.30963 -84.53000 15594 ft 379 kts 357°
2026-04-24 01:00 10.33612 -84.53126 16275 ft 383 kts 357°
2026-04-24 01:00 10.36290 -84.53256 16958 ft 388 kts 357°
2026-04-24 01:01 10.38998 -84.53390 17618 ft 392 kts 357°
2026-04-24 01:01 10.41739 -84.53530 18281 ft 396 kts 357°
2026-04-24 01:01 10.44511 -84.53672 18871 ft 400 kts 357°
2026-04-24 01:01 10.47306 -84.53814 19482 ft 404 kts 356°
2026-04-24 01:02 10.50089 -84.53957 20100 ft 408 kts 356°
2026-04-24 01:02 10.52933 -84.54100 20699 ft 411 kts 356°
2026-04-24 01:02 10.55803 -84.54245 21326 ft 415 kts 356°
2026-04-24 01:02 10.58694 -84.54391 21933 ft 418 kts 356°
2026-04-24 01:03 10.61613 -84.54538 22537 ft 422 kts 356°
2026-04-24 01:03 10.64558 -84.54689 23111 ft 425 kts 356°
2026-04-24 01:03 10.67527 -84.54842 23614 ft 429 kts 356°
2026-04-24 01:03 10.70518 -84.54995 24062 ft 432 kts 355°
2026-04-24 01:04 10.73531 -84.55149 24487 ft 435 kts 355°
2026-04-24 01:04 10.76526 -84.55298 24874 ft 438 kts 355°
2026-04-24 01:04 10.79581 -84.55449 25243 ft 441 kts 355°
2026-04-24 01:04 10.82655 -84.55603 25588 ft 444 kts 355°
2026-04-24 01:05 10.85747 -84.55757 25927 ft 446 kts 355°
2026-04-24 01:05 10.88857 -84.55910 26246 ft 449 kts 355°
2026-04-24 01:05 10.91985 -84.56065 26547 ft 451 kts 355°
2026-04-24 01:05 10.95127 -84.56226 26832 ft 453 kts 355°
2026-04-24 01:06 10.98285 -84.56388 27090 ft 455 kts 355°
2026-04-24 01:06 11.01413 -84.56549 27349 ft 457 kts 355°
2026-04-24 01:06 11.04595 -84.56713 27597 ft 459 kts 354°
2026-04-24 01:06 11.07783 -84.56877 27939 ft 458 kts 354°
2026-04-24 01:07 11.10962 -84.57041 28260 ft 457 kts 354°
2026-04-24 01:07 11.14143 -84.57202 28575 ft 457 kts 354°
2026-04-24 01:07 11.17317 -84.57359 28902 ft 457 kts 354°
2026-04-24 01:07 11.20490 -84.57517 29221 ft 456 kts 354°
2026-04-24 01:08 11.23621 -84.57673 29544 ft 456 kts 354°
2026-04-24 01:08 11.26786 -84.57835 29872 ft 456 kts 353°
2026-04-24 01:08 11.29956 -84.58000 30140 ft 456 kts 353°
2026-04-24 01:08 11.33124 -84.58163 30413 ft 456 kts 353°
2026-04-24 01:09 11.36287 -84.58321 30704 ft 455 kts 354°
2026-04-24 01:09 11.39448 -84.58476 30992 ft 454 kts 354°
2026-04-24 01:09 11.42600 -84.58633 31300 ft 453 kts 354°
2026-04-24 01:09 11.45752 -84.58794 31600 ft 453 kts 353°
2026-04-24 01:10 11.48891 -84.58956 31907 ft 452 kts 353°
2026-04-24 01:10 11.51985 -84.59116 32205 ft 451 kts 354°
2026-04-24 01:10 11.55118 -84.59277 32506 ft 450 kts 354°
2026-04-24 01:10 11.58244 -84.59435 32818 ft 449 kts 354°
2026-04-24 01:11 11.61365 -84.59591 33106 ft 449 kts 354°
2026-04-24 01:11 11.64482 -84.59747 33401 ft 448 kts 353°
2026-04-24 01:11 11.67590 -84.59906 33681 ft 447 kts 353°
2026-04-24 01:11 11.70705 -84.60066 33855 ft 449 kts 353°
2026-04-24 01:12 11.73842 -84.60227 33893 ft 454 kts 353°
2026-04-24 01:12 11.80194 -84.60557 33886 ft 466 kts 353°
2026-04-24 01:13 11.86739 -84.60890 33889 ft 476 kts 354°
2026-04-24 01:13 11.93412 -84.61223 33891 ft 483 kts 354°
2026-04-24 01:14 12.00159 -84.61566 33910 ft 486 kts 353°
2026-04-24 01:14 12.06883 -84.61907 33893 ft 487 kts 353°
2026-04-24 01:15 12.13655 -84.62256 33903 ft 488 kts 353°
2026-04-24 01:15 12.20438 -84.62598 33891 ft 488 kts 354°
2026-04-24 01:16 12.27221 -84.62941 33904 ft 488 kts 353°
2026-04-24 01:16 12.33958 -84.63291 33911 ft 488 kts 353°
2026-04-24 01:17 12.40744 -84.63642 33906 ft 488 kts 353°
2026-04-24 01:17 12.47534 -84.63987 33903 ft 489 kts 353°
2026-04-24 01:18 12.54326 -84.64333 33917 ft 489 kts 353°
2026-04-24 01:18 12.61071 -84.64675 33900 ft 489 kts 353°
2026-04-24 01:19 12.67865 -84.65022 33909 ft 489 kts 353°
2026-04-24 01:19 12.74659 -84.65370 33907 ft 489 kts 353°
2026-04-24 01:20 12.81460 -84.65726 33901 ft 490 kts 353°
2026-04-24 01:20 12.88225 -84.66074 33890 ft 490 kts 353°
2026-04-24 01:21 12.95033 -84.66423 33893 ft 490 kts 353°
2026-04-24 01:21 13.01848 -84.66773 33894 ft 490 kts 353°
2026-04-24 01:22 13.08655 -84.67116 33906 ft 490 kts 353°
2026-04-24 01:22 13.15460 -84.67467 33899 ft 489 kts 353°
2026-04-24 01:23 13.22203 -84.67814 33892 ft 488 kts 353°
2026-04-24 01:23 13.28984 -84.68159 33892 ft 488 kts 353°
2026-04-24 01:24 13.35760 -84.68508 33895 ft 487 kts 353°
2026-04-24 01:24 13.42535 -84.68863 33885 ft 487 kts 353°
2026-04-24 01:25 13.49264 -84.69211 33901 ft 487 kts 353°
2026-04-24 01:25 13.56024 -84.69559 33903 ft 486 kts 353°
2026-04-24 01:26 13.62782 -84.69910 33902 ft 486 kts 353°
2026-04-24 01:26 13.69537 -84.70255 33902 ft 486 kts 353°
2026-04-24 01:27 13.76245 -84.70600 33922 ft 486 kts 353°
2026-04-24 01:27 13.83000 -84.70951 33920 ft 486 kts 353°
2026-04-24 01:28 13.89755 -84.71300 33917 ft 486 kts 353°
2026-04-24 01:28 13.96510 -84.71650 33915 ft 486 kts 353°
2026-04-24 01:29 14.03221 -84.71991 33916 ft 486 kts 353°
2026-04-24 01:29 14.09970 -84.72346 33916 ft 486 kts 353°
2026-04-24 01:30 14.16722 -84.72701 33913 ft 486 kts 353°
2026-04-24 01:30 14.23479 -84.73053 33910 ft 486 kts 353°
2026-04-24 01:31 14.30197 -84.73402 33908 ft 486 kts 353°
2026-04-24 01:31 14.36955 -84.73750 33907 ft 486 kts 353°
2026-04-24 01:32 14.43716 -84.74103 33908 ft 486 kts 353°
2026-04-24 01:32 14.50478 -84.74458 33905 ft 487 kts 353°
2026-04-24 01:33 14.57242 -84.74808 33903 ft 487 kts 353°
2026-04-24 01:33 14.63960 -84.75153 33906 ft 487 kts 353°
2026-04-24 01:34 14.70721 -84.75506 33910 ft 487 kts 353°
2026-04-24 01:34 14.77489 -84.75864 33911 ft 487 kts 353°
2026-04-24 01:35 14.84256 -84.76218 33912 ft 487 kts 353°
2026-04-24 01:35 14.90985 -84.76568 33913 ft 488 kts 353°
2026-04-24 01:36 14.97784 -84.76924 33898 ft 490 kts 353°
2026-04-24 01:36 15.04602 -84.77279 33909 ft 491 kts 353°
2026-04-24 01:37 15.11435 -84.77634 33913 ft 492 kts 353°
2026-04-24 01:37 15.18225 -84.77992 33923 ft 492 kts 353°
2026-04-24 01:38 15.25063 -84.78353 33947 ft 492 kts 352°
2026-04-24 01:38 15.31887 -84.78704 33952 ft 490 kts 352°
2026-04-24 01:39 15.38643 -84.79057 33950 ft 489 kts 352°
2026-04-24 01:39 15.45437 -84.79420 33953 ft 488 kts 352°
2026-04-24 01:40 15.52222 -84.79778 33953 ft 488 kts 352°
2026-04-24 01:40 15.58999 -84.80127 33963 ft 487 kts 352°
2026-04-24 01:41 15.65720 -84.80478 33959 ft 486 kts 352°
2026-04-24 01:41 15.72471 -84.80831 33950 ft 485 kts 352°
2026-04-24 01:42 15.79209 -84.81189 33953 ft 485 kts 352°
2026-04-24 01:42 15.85943 -84.81546 33951 ft 484 kts 352°
2026-04-24 01:43 15.92624 -84.81898 33946 ft 484 kts 352°
2026-04-24 01:43 15.99350 -84.82250 33955 ft 484 kts 351°
2026-04-24 01:44 16.06074 -84.82600 33951 ft 484 kts 351°
2026-04-24 01:44 16.12749 -84.82956 33946 ft 483 kts 351°
2026-04-24 01:45 16.19466 -84.83313 33940 ft 483 kts 351°
2026-04-24 01:45 16.26180 -84.83672 33940 ft 483 kts 351°
2026-04-24 01:46 16.32896 -84.84028 33962 ft 483 kts 351°
2026-04-24 01:46 16.39607 -84.84386 33955 ft 483 kts 351°
2026-04-24 01:47 16.46270 -84.84736 33954 ft 482 kts 351°
2026-04-24 01:47 16.52974 -84.85090 33945 ft 482 kts 351°
2026-04-24 01:48 16.59677 -84.85444 33949 ft 482 kts 351°
2026-04-24 01:48 16.66376 -84.85799 33961 ft 482 kts 351°
2026-04-24 01:49 16.73078 -84.86154 33963 ft 482 kts 351°
2026-04-24 01:49 16.79727 -84.86516 33956 ft 482 kts 351°
2026-04-24 01:50 16.86425 -84.86875 33958 ft 482 kts 351°
2026-04-24 01:50 16.93123 -84.87224 33957 ft 482 kts 351°
2026-04-24 01:51 16.99821 -84.87585 33977 ft 482 kts 351°
2026-04-24 01:51 17.06472 -84.87944 33975 ft 482 kts 351°
2026-04-24 01:52 17.13161 -84.88291 33971 ft 481 kts 351°
2026-04-24 01:52 17.19854 -84.88648 33969 ft 481 kts 351°
2026-04-24 01:53 17.26538 -84.89016 33972 ft 481 kts 351°
2026-04-24 01:53 17.33186 -84.89372 33972 ft 481 kts 351°
2026-04-24 01:54 17.39876 -84.89729 33983 ft 481 kts 351°
2026-04-24 01:54 17.46564 -84.90081 33983 ft 481 kts 351°
2026-04-24 01:55 17.53252 -84.90438 33979 ft 481 kts 351°
2026-04-24 01:55 17.59896 -84.90795 33976 ft 481 kts 351°
2026-04-24 01:56 17.66581 -84.91152 33982 ft 481 kts 351°
2026-04-24 01:56 17.73266 -84.91509 33988 ft 481 kts 350°
2026-04-24 01:57 17.79949 -84.91867 33988 ft 481 kts 350°
2026-04-24 01:57 17.86590 -84.92228 33985 ft 481 kts 350°
2026-04-24 01:58 17.93272 -84.92596 33980 ft 481 kts 350°
2026-04-24 01:58 17.99958 -84.92957 33983 ft 481 kts 350°
2026-04-24 01:59 18.06646 -84.93316 33985 ft 481 kts 350°
2026-04-24 01:59 18.13290 -84.93674 33985 ft 481 kts 350°
2026-04-24 02:00 18.19984 -84.94040 33989 ft 482 kts 350°
2026-04-24 02:00 18.26682 -84.94406 33992 ft 482 kts 350°
2026-04-24 02:01 18.33378 -84.94760 33992 ft 482 kts 350°
2026-04-24 02:01 18.40027 -84.95115 34004 ft 482 kts 350°
2026-04-24 02:02 18.46715 -84.95479 34002 ft 481 kts 350°
2026-04-24 02:02 18.53397 -84.95841 33997 ft 481 kts 350°
2026-04-24 02:03 18.62288 -84.96327 33995 ft 481 kts 350°
2026-04-24 02:03 18.70054 -84.96750 33993 ft 481 kts 350°
2026-04-24 02:04 18.75649 -84.97053 34014 ft 481 kts 350°
2026-04-24 02:04 18.82282 -84.97418 34005 ft 481 kts 350°
2026-04-24 02:05 18.88958 -84.97778 34000 ft 480 kts 350°
2026-04-24 02:05 18.96719 -84.98200 33997 ft 481 kts 350°
2026-04-24 02:06 19.03401 -84.98559 33999 ft 481 kts 350°
2026-04-24 02:06 19.08949 -84.98859 34016 ft 480 kts 350°
2026-04-24 02:07 19.15623 -84.99224 34017 ft 480 kts 350°
2026-04-24 02:07 19.23377 -84.99658 34012 ft 480 kts 350°
2026-04-24 02:08 19.28966 -84.99963 34006 ft 480 kts 350°
2026-04-24 02:08 19.35592 -85.00321 34003 ft 480 kts 350°
2026-04-24 02:09 19.42262 -85.00689 34015 ft 480 kts 349°
2026-04-24 02:09 19.48933 -85.01050 34013 ft 480 kts 349°
2026-04-24 02:10 19.55601 -85.01420 34009 ft 480 kts 349°
2026-04-24 02:10 19.62223 -85.01782 34008 ft 480 kts 349°
2026-04-24 02:11 19.68896 -85.02148 34008 ft 480 kts 349°
2026-04-24 02:11 19.75567 -85.02518 34035 ft 480 kts 350°
2026-04-24 02:12 19.82235 -85.02890 34026 ft 480 kts 350°
2026-04-24 02:12 19.88901 -85.03254 34018 ft 480 kts 350°
2026-04-24 02:13 19.95523 -85.03618 34017 ft 480 kts 350°
2026-04-24 02:13 20.02186 -85.03986 34011 ft 480 kts 350°
2026-04-24 02:14 20.08857 -85.04361 34026 ft 480 kts 350°
2026-04-24 02:14 20.15524 -85.04733 34022 ft 480 kts 350°
2026-04-24 02:15 20.22146 -85.05094 34017 ft 479 kts 350°
2026-04-24 02:15 20.28805 -85.05466 34018 ft 479 kts 350°
2026-04-24 02:16 20.35464 -85.05832 34017 ft 479 kts 350°
2026-04-24 02:16 20.42118 -85.06193 34037 ft 479 kts 350°
2026-04-24 02:17 20.48726 -85.06557 34028 ft 478 kts 350°
2026-04-24 02:17 20.55374 -85.06930 34026 ft 478 kts 350°
2026-04-24 02:18 20.62016 -85.07303 34023 ft 478 kts 350°
2026-04-24 02:18 20.68656 -85.07677 34022 ft 478 kts 350°
2026-04-24 02:19 20.75257 -85.08042 34037 ft 478 kts 351°
2026-04-24 02:19 20.81875 -85.08408 34025 ft 476 kts 351°
2026-04-24 02:20 20.88479 -85.08780 34025 ft 475 kts 351°
2026-04-24 02:20 20.95087 -85.09146 34025 ft 475 kts 351°
2026-04-24 02:21 21.01643 -85.09515 34019 ft 475 kts 351°
2026-04-24 02:21 21.08277 -85.09374 34039 ft 485 kts
2026-04-24 02:22 21.14934 -85.08285 34229 ft 483 kts
2026-04-24 02:22 21.18259 -85.07724 34412 ft 482 kts
2026-04-24 02:22 21.21569 -85.07166 34568 ft 482 kts
2026-04-24 02:23 21.24883 -85.06614 34721 ft 481 kts
2026-04-24 02:23 21.28188 -85.06068 34868 ft 481 kts
2026-04-24 02:23 21.31500 -85.05524 35025 ft 481 kts
2026-04-24 02:23 21.34761 -85.04987 35178 ft 481 kts
2026-04-24 02:24 21.38068 -85.04442 35335 ft 481 kts
2026-04-24 02:24 21.41375 -85.03894 35469 ft 481 kts
2026-04-24 02:24 21.44679 -85.03348 35603 ft 481 kts
2026-04-24 02:24 21.47966 -85.02800 36098 ft 467 kts
2026-04-24 02:25 21.51078 -85.02250 37370 ft 443 kts
2026-04-24 02:25 21.54085 -85.01702 37865 ft 438 kts
2026-04-24 02:25 21.57093 -85.01191 37978 ft 438 kts 359°
2026-04-24 02:25 21.60076 -85.00717 38004 ft 440 kts 359°
2026-04-24 02:26 21.66189 -84.99769 38003 ft 448 kts 359°
2026-04-24 02:26 21.72402 -84.98763 38028 ft 455 kts
2026-04-24 02:27 21.78715 -84.97704 38001 ft 463 kts
2026-04-24 02:27 21.85124 -84.96623 38003 ft 469 kts
2026-04-24 02:28 21.91561 -84.95537 38003 ft 474 kts
2026-04-24 02:28 21.98107 -84.94439 38002 ft 478 kts
2026-04-24 02:29 22.04686 -84.93338 38002 ft 479 kts
2026-04-24 02:29 22.11273 -84.92241 38000 ft 479 kts
2026-04-24 02:30 22.17825 -84.91142 38010 ft 480 kts
2026-04-24 02:30 22.24432 -84.90026 38018 ft 481 kts
2026-04-24 02:31 22.31042 -84.88922 38021 ft 481 kts
2026-04-24 02:31 22.37658 -84.87812 38051 ft 481 kts
2026-04-24 02:32 22.44235 -84.86708 38035 ft 482 kts
2026-04-24 02:32 22.50859 -84.85585 38028 ft 482 kts
2026-04-24 02:33 22.57491 -84.84459 38028 ft 482 kts
2026-04-24 02:33 22.64123 -84.83337 38027 ft 483 kts
2026-04-24 02:34 22.70717 -84.82232 38055 ft 483 kts
2026-04-24 02:34 22.77350 -84.81118 38042 ft 482 kts
2026-04-24 02:35 22.83990 -84.79998 38033 ft 483 kts
2026-04-24 02:35 22.90620 -84.78867 38035 ft 483 kts
2026-04-24 02:36 22.97210 -84.77746 38039 ft 483 kts
2026-04-24 02:36 23.03841 -84.76618 38030 ft 481 kts
2026-04-24 02:37 23.10425 -84.75496 38020 ft 478 kts
2026-04-24 02:37 23.17006 -84.74376 38025 ft 479 kts
2026-04-24 02:38 23.23585 -84.73261 38033 ft 479 kts
2026-04-24 02:38 23.30128 -84.72151 38029 ft 479 kts
2026-04-24 02:39 23.36711 -84.71026 38049 ft 479 kts
2026-04-24 02:39 23.43284 -84.69902 38036 ft 478 kts
2026-04-24 02:40 23.49850 -84.68786 38037 ft 478 kts
2026-04-24 02:40 23.56374 -84.67677 38036 ft 478 kts
2026-04-24 02:41 23.62942 -84.66545 38036 ft 478 kts
2026-04-24 02:41 23.69508 -84.65419 38052 ft 478 kts
2026-04-24 02:42 23.76071 -84.64289 38044 ft 477 kts
2026-04-24 02:42 23.82630 -84.63162 38042 ft 477 kts
2026-04-24 02:43 23.89140 -84.62043 38038 ft 477 kts
2026-04-24 02:43 23.95691 -84.60923 38041 ft 477 kts
2026-04-24 02:44 24.02234 -84.59790 38037 ft 475 kts
2026-04-24 02:44 24.08762 -84.58655 38035 ft 475 kts
2026-04-24 02:45 24.15246 -84.57532 38037 ft 475 kts
2026-04-24 02:45 24.21783 -84.56402 38041 ft 475 kts
2026-04-24 02:46 24.28319 -84.55273 38040 ft 476 kts
2026-04-24 02:46 24.34826 -84.54148 38019 ft 471 kts
2026-04-24 02:47 24.41251 -84.53034 38028 ft 471 kts
2026-04-24 02:47 24.47725 -84.51906 38032 ft 471 kts
2026-04-24 02:48 24.54207 -84.50786 38041 ft 471 kts
2026-04-24 02:48 24.60688 -84.49664 38043 ft 472 kts
2026-04-24 02:49 24.67125 -84.48541 38046 ft 471 kts
2026-04-24 02:49 24.73606 -84.47414 38045 ft 471 kts
2026-04-24 02:50 24.80081 -84.46282 38044 ft 471 kts
2026-04-24 02:50 24.86556 -84.45140 38044 ft 471 kts
2026-04-24 02:51 24.92989 -84.44012 38040 ft 470 kts
2026-04-24 02:51 24.99433 -84.42892 38035 ft 468 kts
2026-04-24 02:52 25.05875 -84.41765 38041 ft 469 kts
2026-04-24 02:52 25.12322 -84.40635 38045 ft 469 kts
2026-04-24 02:53 25.18729 -84.39513 38046 ft 470 kts
2026-04-24 02:53 25.25182 -84.38383 38061 ft 469 kts
2026-04-24 02:54 25.31622 -84.37247 38056 ft 469 kts
2026-04-24 02:54 25.38062 -84.36108 38052 ft 468 kts
2026-04-24 02:55 25.44453 -84.34973 38055 ft 468 kts
2026-04-24 02:55 25.50887 -84.33840 38058 ft 468 kts
2026-04-24 02:56 25.57313 -84.32707 38062 ft 467 kts
2026-04-24 02:56 25.63733 -84.31582 38059 ft 467 kts
2026-04-24 02:57 25.70157 -84.30443 38057 ft 468 kts
2026-04-24 02:57 25.76543 -84.29303 38057 ft 468 kts
2026-04-24 02:58 25.82979 -84.28165 38066 ft 469 kts
2026-04-24 02:58 25.89406 -84.27030 38049 ft 466 kts
2026-04-24 02:59 25.95814 -84.25882 38054 ft 467 kts
2026-04-24 02:59 26.02180 -84.24742 38059 ft 467 kts
2026-04-24 03:00 26.08590 -84.23593 38062 ft 467 kts
2026-04-24 03:00 26.15005 -84.22451 38095 ft 466 kts
2026-04-24 03:01 26.21394 -84.21313 38057 ft 465 kts
2026-04-24 03:01 26.27736 -84.20180 38061 ft 465 kts
2026-04-24 03:02 26.34125 -84.19038 38062 ft 465 kts
2026-04-24 03:02 26.40519 -84.17889 38068 ft 466 kts
2026-04-24 03:03 26.46917 -84.16738 38086 ft 466 kts
2026-04-24 03:03 26.53315 -84.15580 38076 ft 466 kts
2026-04-24 03:04 26.59672 -84.14440 38073 ft 466 kts
2026-04-24 03:04 26.66074 -84.13296 38074 ft 466 kts
2026-04-24 03:05 26.72472 -84.12144 38073 ft 466 kts
2026-04-24 03:05 26.78869 -84.10995 38086 ft 465 kts
2026-04-24 03:06 26.85219 -84.09849 38076 ft 465 kts
2026-04-24 03:06 26.91611 -84.08689 38075 ft 465 kts
2026-04-24 03:07 26.98002 -84.07526 38070 ft 465 kts
2026-04-24 03:07 27.04393 -84.06374 38072 ft 465 kts
2026-04-24 03:08 27.13928 -84.04631 38085 ft 465 kts
2026-04-24 03:09 27.20311 -84.03464 38084 ft 464 kts
2026-04-24 03:09 27.26692 -84.02295 38080 ft 464 kts
2026-04-24 03:10 27.33068 -84.01128 38081 ft 464 kts
2026-04-24 03:10 27.39400 -83.99979 38091 ft 464 kts
2026-04-24 03:11 27.45763 -83.98819 38089 ft 463 kts
2026-04-24 03:11 27.52123 -83.97659 38084 ft 463 kts
2026-04-24 03:12 27.58483 -83.96493 38082 ft 463 kts
2026-04-24 03:12 27.61655 -83.95916 37923 ft 464 kts
2026-04-24 03:12 27.64786 -83.95344 37577 ft 459 kts
2026-04-24 03:12 27.67943 -83.94765 37315 ft 461 kts
2026-04-24 03:13 27.71119 -83.94180 37057 ft 463 kts
2026-04-24 03:13 27.74305 -83.93593 36801 ft 465 kts
2026-04-24 03:13 27.77481 -83.92826 36538 ft 471 kts 15°
2026-04-24 03:13 27.80462 -83.91222 36072 ft 481 kts 31°
2026-04-24 03:14 27.82986 -83.88698 35502 ft 493 kts 49°
2026-04-24 03:14 27.84832 -83.85401 34896 ft 503 kts 66°
2026-04-24 03:14 27.85792 -83.81654 34304 ft 507 kts 84°
2026-04-24 03:14 27.86039 -83.77658 33661 ft 512 kts 89°
2026-04-24 03:15 27.86210 -83.73622 33069 ft 516 kts 89°
2026-04-24 03:15 27.86373 -83.69562 32452 ft 518 kts 89°
2026-04-24 03:15 27.86533 -83.65490 31833 ft 519 kts 88°
2026-04-24 03:15 27.86691 -83.61409 31213 ft 520 kts 88°
2026-04-24 03:16 27.86848 -83.57319 30596 ft 521 kts 88°
2026-04-24 03:16 27.87007 -83.53221 29936 ft 522 kts 88°
2026-04-24 03:16 27.87164 -83.49113 29313 ft 524 kts 88°
2026-04-24 03:16 27.87321 -83.45050 28704 ft 525 kts 88°
2026-04-24 03:17 27.87483 -83.40930 28097 ft 525 kts 87°
2026-04-24 03:17 27.87643 -83.36809 27506 ft 525 kts 87°
2026-04-24 03:17 27.87799 -83.32691 26917 ft 525 kts 87°
2026-04-24 03:17 27.87954 -83.28572 26363 ft 524 kts 87°
2026-04-24 03:18 27.88093 -83.24458 25852 ft 523 kts 88°
2026-04-24 03:18 27.88163 -83.20349 25650 ft 524 kts 89°
2026-04-24 03:18 27.88175 -83.16233 25352 ft 523 kts 90°
2026-04-24 03:18 27.88151 -83.12177 25072 ft 523 kts 90°
2026-04-24 03:19 27.88115 -83.08064 24785 ft 523 kts 90°
2026-04-24 03:19 27.88082 -83.03950 24502 ft 523 kts 90°
2026-04-24 03:19 27.88065 -82.99844 24206 ft 523 kts 90°
2026-04-24 03:19 27.88063 -82.95737 23929 ft 522 kts 89°
2026-04-24 03:20 27.88069 -82.91652 23643 ft 513 kts 89°
2026-04-24 03:20 27.88076 -82.87705 23446 ft 492 kts 89°
2026-04-24 03:20 27.88082 -82.83919 23313 ft 472 kts 89°
2026-04-24 03:20 27.88086 -82.80328 23182 ft 455 kts 89°
2026-04-24 03:21 27.88086 -82.76819 23045 ft 439 kts 90°
2026-04-24 03:21 27.88083 -82.73418 22906 ft 426 kts 90°
2026-04-24 03:21 27.88076 -82.70098 22604 ft 419 kts 90°
2026-04-24 03:21 27.88069 -82.66822 22215 ft 415 kts 90°
2026-04-24 03:22 27.88048 -82.63570 21795 ft 412 kts 90°
2026-04-24 03:22 27.88005 -82.60349 21437 ft 407 kts 91°
2026-04-24 03:22 27.87951 -82.57181 21204 ft 399 kts 91°
2026-04-24 03:22 27.87893 -82.54124 20993 ft 390 kts 91°
2026-04-24 03:23 27.87835 -82.51100 20776 ft 381 kts 91°
2026-04-24 03:23 27.87783 -82.48136 20530 ft 374 kts 91°
2026-04-24 03:23 27.87741 -82.45211 20104 ft 373 kts 91°
2026-04-24 03:23 27.87773 -82.42240 19707 ft 388 kts 83°
2026-04-24 03:24 27.88389 -82.39162 19285 ft 420 kts 69°
2026-04-24 03:24 27.89649 -82.36070 18825 ft 439 kts 63°
2026-04-24 03:24 27.91014 -82.32959 18469 ft 445 kts 63°
2026-04-24 03:24 27.92363 -82.29794 18135 ft 460 kts 64°
2026-04-24 03:25 27.93723 -82.26502 17821 ft 463 kts 64°
2026-04-24 03:25 27.95039 -82.23219 17574 ft 452 kts 65°
2026-04-24 03:25 27.96277 -82.19980 17314 ft 448 kts 66°
2026-04-24 03:25 27.97483 -82.16702 17031 ft 454 kts 66°
2026-04-24 03:26 27.98720 -82.13396 16721 ft 459 kts 66°
2026-04-24 03:26 27.99994 -82.10131 16389 ft 447 kts 65°
2026-04-24 03:26 28.01264 -82.06938 16022 ft 444 kts 64°
2026-04-24 03:26 28.02531 -82.03808 15730 ft 443 kts 64°
2026-04-24 03:27 28.03819 -82.00647 15492 ft 442 kts 64°
2026-04-24 03:27 28.05117 -81.97488 15276 ft 443 kts 64°
2026-04-24 03:27 28.06413 -81.94321 14947 ft 442 kts 64°
2026-04-24 03:27 28.07693 -81.91154 14571 ft 443 kts 65°
2026-04-24 03:28 28.08971 -81.87965 14041 ft 446 kts 65°
2026-04-24 03:28 28.10276 -81.84865 13595 ft 418 kts 62°
2026-04-24 03:28 28.11554 -81.82072 13423 ft 390 kts 61°
2026-04-24 03:28 28.12871 -81.79299 13114 ft 409 kts 60°
2026-04-24 03:29 28.14273 -81.76439 12804 ft 425 kts 59°
2026-04-24 03:29 28.15698 -81.73546 12118 ft 420 kts 60°
2026-04-24 03:29 28.17064 -81.70700 11865 ft 403 kts 60°
2026-04-24 03:29 28.18366 -81.67906 11444 ft 396 kts 61°
2026-04-24 03:30 28.19603 -81.65157 11174 ft 386 kts 62°
2026-04-24 03:30 28.20776 -81.62462 10907 ft 377 kts 63°
2026-04-24 03:30 28.21938 -81.59833 10606 ft 370 kts 61°
2026-04-24 03:30 28.23140 -81.57265 10254 ft 368 kts 60°
2026-04-24 03:31 28.24366 -81.54755 10150 ft 370 kts 59°
2026-04-24 03:31 28.25798 -81.52330 10028 ft 371 kts 52°
2026-04-24 03:31 28.27406 -81.50026 9865 ft 375 kts 50°
2026-04-24 03:31 28.29041 -81.47664 9423 ft 385 kts 51°
2026-04-24 03:32 28.30663 -81.45205 8598 ft 394 kts 51°
2026-04-24 03:32 28.32678 -81.43125 8045 ft 392 kts 29°
2026-04-24 03:32 28.35220 -81.42165 7767 ft 383 kts
2026-04-24 03:32 28.37836 -81.41993 7702 ft 369 kts
2026-04-24 03:33 28.40347 -81.41970 7449 ft 353 kts 358°
2026-04-24 03:33 28.42723 -81.42036 7220 ft 340 kts 357°
2026-04-24 03:33 28.45047 -81.42127 6943 ft 326 kts 357°
2026-04-24 03:33 28.47228 -81.42212 6372 ft 304 kts 357°
2026-04-24 03:34 28.49280 -81.42280 5733 ft 287 kts 358°
2026-04-24 03:34 28.51227 -81.42322 5135 ft 273 kts 359°
2026-04-24 03:34 28.53084 -81.42348 4550 ft 261 kts 360°
2026-04-24 03:34 28.54853 -81.42358 4128 ft 244 kts
2026-04-24 03:35 28.56481 -81.42353 3824 ft 224 kts
2026-04-24 03:35 28.58011 -81.42333 3669 ft 219 kts
2026-04-24 03:35 28.59541 -81.42337 3498 ft 218 kts
2026-04-24 03:35 28.60999 -81.42387 3365 ft 213 kts 359°
2026-04-24 03:36 28.62478 -81.42460 3105 ft 212 kts 358°
2026-04-24 03:36 28.63920 -81.42353 2947 ft 202 kts 26°
2026-04-24 03:36 28.65019 -81.41469 2997 ft 192 kts 55°
2026-04-24 03:36 28.65644 -81.40141 3058 ft 192 kts 81°
2026-04-24 03:37 28.65683 -81.38643 3038 ft 191 kts 105°
2026-04-24 03:37 28.65126 -81.37269 2944 ft 195 kts 130°
2026-04-24 03:37 28.64102 -81.36280 2929 ft 198 kts 147°
2026-04-24 03:37 28.62938 -81.35429 2875 ft 199 kts 147°
2026-04-24 03:38 28.61774 -81.34571 2827 ft 200 kts 147°
2026-04-24 03:38 28.60614 -81.33705 2829 ft 198 kts 147°
2026-04-24 03:38 28.59377 -81.33046 2845 ft 198 kts 165°
2026-04-24 03:38 28.57997 -81.32857 2659 ft 202 kts 176°
2026-04-24 03:39 28.56593 -81.32823 2352 ft 202 kts 178°
2026-04-24 03:39 28.55186 -81.32836 2050 ft 202 kts 178°
2026-04-24 03:39 28.53777 -81.32849 1728 ft 201 kts 178°
2026-04-24 03:39 28.52446 -81.32834 1483 ft 188 kts 175°
2026-04-24 03:40 28.51175 -81.32793 1291 ft 176 kts 175°
2026-04-24 03:40 28.50004 -81.32771 1142 ft 160 kts 176°
2026-04-24 03:40 28.48967 -81.32754 1007 ft 138 kts 175°
2026-04-24 03:40 28.48000 -81.32734 761 ft 144 kts 176°
2026-04-24 03:41 28.46953 -81.32721 586 ft 151 kts 178°
2026-04-24 03:41 28.45909 -81.32709 369 ft 149 kts 178°
2026-04-24 03:41 28.44887 -81.32702 167 ft 145 kts 178°
2026-04-24 03:41 28.43965 -81.32688 102 ft 115 kts 180°
2026-04-24 03:42 28.43308 -81.32680 110 ft 77 kts 179°
2026-04-24 03:42 28.42863 -81.32676 108 ft 51 kts 182°
2026-04-24 03:42 28.42648 -81.32635 102 ft 27 kts 140°
2026-04-24 03:42 28.42556 -81.32479 106 ft 22 kts 121°
2026-04-24 03:43 28.42478 -81.32336 107 ft 15 kts 120°
2026-04-24 03:43 28.42428 -81.32233 110 ft 15 kts 120°
2026-04-24 03:43 28.42367 -81.32112 110 ft 20 kts 120°
2026-04-24 03:43 28.42345 -81.31956 109 ft 21 kts 90°
2026-04-24 03:44 28.42351 -81.31801 107 ft 17 kts 86°
2026-04-24 03:44 28.42364 -81.31695 104 ft 12 kts 57°
2026-04-24 03:44 28.42441 -81.31636 104 ft 14 kts 31°
2026-04-24 03:44 28.42502 -81.31558 100 ft 13 kts 72°
2026-04-24 03:45 28.42518 -81.31503 101 ft 4 kts 65°
2026-04-24 03:45 28.42541 -81.31502 101 ft 4 kts
2026-04-24 03:45 28.42566 -81.31500 101 ft 3 kts
2026-04-24 03:45 28.42567 -81.31500 101 ft 0 kts